Wind_Speed
49 51 49 45 44 42 43 44 44 44 45 46 45 44 44 45 45 44 43 42 42 42 42 42 42 41 41 41 41 40 40 40 40 40 39 39 38 38 38 38 38 38 38 37
51 51 46 45 44 44 44 44 44 44 45 46 45 44 42 43 44 44 44 43 43 44 44 44 43 43 42 42 43 42 42 42 42 42 41 41 40 40 39 39 39 39 38 37
51 47 44 45 46 46 45 45 43 43 44 47 47 45 43 42 43 43 43 43 44 44 44 45 45 44 44 43 43 44 43 42 43 43 42 41 40 40 40 40 40 40 39 38
51 48 47 47 47 46 45 42 42 43 45 45 46 48 43 42 42 42 43 42 43 44 44 44 44 44 45 44 45 45 44 44 43 43 42 42 42 41 41 40 40 40 39 38
51 49 49 48 45 44 43 42 43 43 44 45 45 49 44 41 41 41 42 42 42 43 43 43 43 43 43 44 44 44 44 44 43 43 43 43 42 42 41 41 40 40 39 39
50 49 49 47 45 44 43 43 43 43 44 46 42 45 46 41 39 39 39 40 41 41 42 42 43 42 42 42 42 42 43 43 42 43 43 43 42 42 41 41 40 39 39 38
51 50 50 48 47 46 45 44 43 43 45 45 40 43 44 39 37 37 37 38 39 40 40 41 41 41 40 40 40 40 40 40 41 41 42 41 41 41 40 40 39 38 38 38
51 51 49 49 47 46 44 43 43 42 42 42 42 43 40 36 35 34 34 36 36 37 38 39 39 39 39 39 39 39 39 39 39 39 40 40 40 39 39 39 38 38 38 38
51 50 47 47 44 45 44 44 41 41 42 42 43 41 37 34 33 33 33 34 34 35 36 37 37 37 37 37 37 37 37 37 37 38 38 38 38 38 38 38 38 38 38 38
48 48 48 47 46 46 45 42 42 43 43 43 42 40 36 34 32 31 31 31 32 33 33 34 34 34 34 34 34 35 35 35 35 35 36 36 36 36 37 37 37 38 38 39
48 48 48 48 48 45 44 45 45 44 44 43 42 39 35 33 31 30 30 30 30 30 31 31 31 31 32 32 32 32 32 33 33 33 34 35 35 36 36 37 37 37 38 39
45 47 48 46 43 42 43 43 44 45 44 42 41 39 35 33 31 30 29 29 28 29 29 29 29 30 30 30 31 31 31 31 32 32 33 33 34 34 35 35 36 37 38 39
46 49 49 49 47 45 46 45 45 44 43 43 42 39 34 34 31 29 29 29 28 27 27 27 27 28 28 29 29 30 30 31 31 31 31 32 32 33 34 35 36 37 38 38
46 49 51 50 47 44 44 44 43 43 45 43 40 36 34 33 31 30 30 29 28 27 26 26 26 27 28 28 29 29 29 29 30 30 31 32 32 33 34 35 36 37 38 39
46 48 48 48 47 47 45 44 44 44 42 41 38 36 33 33 32 32 30 29 27 27 26 26 26 26 27 27 28 28 28 29 30 30 31 32 32 33 34 35 36 37 38 40
45 47 47 48 48 48 48 46 44 43 42 40 38 35 31 32 33 32 31 29 27 26 25 25 26 26 26 27 27 27 28 29 29 30 30 31 32 33 33 35 36 38 39 40
47 46 46 47 47 48 51 47 44 42 41 39 38 33 32 34 33 32 31 29 27 26 25 25 25 26 27 27 27 27 28 28 29 30 30 31 32 33 34 35 37 38 40 41
49 47 45 45 46 50 46 44 43 41 39 38 37 34 34 33 33 32 31 29 27 26 25 25 25 26 26 27 27 27 28 29 29 29 30 31 32 34 35 37 38 39 40 41
50 48 46 46 47 46 44 42 40 39 38 36 35 34 34 33 33 31 29 29 27 26 25 25 25 26 26 26 27 27 27 28 29 29 30 31 33 34 35 37 38 39 40 41
52 50 48 47 46 45 41 38 37 38 38 34 34 34 33 34 33 29 29 28 27 26 25 25 25 26 26 26 27 27 27 28 30 30 32 33 34 35 36 37 38 40 41 42
51 51 48 46 44 42 40 37 35 37 33 31 33 33 32 32 30 28 28 27 26 26 26 25 25 25 26 26 27 28 28 30 31 32 33 34 35 36 37 38 39 40 42 43
49 49 48 46 45 41 37 36 34 31 31 31 30 30 29 29 28 27 27 26 26 25 25 25 26 26 26 27 28 28 30 31 32 33 34 35 36 37 37 39 40 42 43 45
47 46 44 44 42 38 36 34 32 31 30 29 28 28 28 27 27 27 27 27 26 26 26 26 26 27 28 28 29 30 31 32 33 34 35 36 36 37 38 40 41 42 44 45
44 44 44 43 42 39 36 33 32 32 30 29 28 27 27 27 27 28 28 28 27 27 27 27 27 28 29 29 30 31 32 33 33 34 35 36 37 38 39 40 42 43 44 46
42 44 43 43 40 38 36 32 31 31 30 28 28 27 27 27 27 28 28 28 28 28 28 29 29 29 30 30 31 32 33 34 34 35 36 36 37 39 40 41 42 44 45 47
41 41 41 40 38 36 34 33 32 30 30 29 29 28 28 28 28 28 28 28 28 29 29 30 30 31 31 32 32 33 34 34 35 36 36 37 38 39 40 42 43 45 47 49
Wind_Direction
236 236 237 239 242 242 242 243 243 244 246 248 248 248 248 249 251 251 253 254 256 258 259 261 262 264 266 269 270 271 272 274 276 277 277 278 279 279 280 281 282 283 284 285
235 236 237 238 239 240 241 243 245 247 248 250 251 250 250 252 254 254 254 255 256 258 260 261 263 265 266 268 270 271 271 273 274 276 276 277 278 279 280 280 281 281 282 283
237 237 237 238 238 240 241 243 245 248 250 251 253 252 252 253 255 256 257 257 257 259 261 262 264 265 266 268 269 270 271 272 274 275 275 276 277 278 279 279 279 280 280 281
235 234 234 235 237 239 241 243 245 247 249 251 254 255 252 254 255 257 258 259 259 260 262 263 265 265 266 267 268 270 271 272 272 273 274 274 275 276 277 277 278 278 279 280
234 233 234 235 237 239 242 243 245 247 249 251 253 257 254 255 256 257 259 260 261 261 263 264 265 266 267 268 268 269 271 271 271 272 272 273 274 275 275 276 277 278 278 279
233 232 234 235 237 238 239 241 244 247 249 251 252 257 258 257 258 259 261 262 263 264 264 265 266 267 268 269 269 270 270 270 270 270 271 272 272 273 274 275 276 276 277 278
231 231 231 232 233 234 236 238 241 245 249 252 254 256 259 260 261 262 263 263 264 265 266 266 267 268 268 269 269 270 270 270 270 270 270 270 271 272 273 274 274 275 276 277
232 232 233 234 234 236 238 239 241 246 251 255 255 255 258 261 262 262 263 264 264 265 266 267 268 268 269 269 269 270 269 269 269 269 269 269 270 271 271 272 273 274 276 277
233 235 235 236 236 237 237 239 242 244 247 251 255 257 258 260 263 263 263 265 265 266 267 268 269 269 269 269 270 270 269 269 269 268 268 269 269 270 271 271 272 274 276 278
233 235 233 233 233 234 236 237 237 240 244 248 253 257 261 261 262 263 264 265 266 267 267 268 269 269 269 269 269 269 269 268 268 268 268 268 268 269 270 271 273 274 276 278
227 230 232 233 233 234 234 234 236 240 244 248 253 257 260 263 263 265 265 266 266 268 268 269 269 269 270 270 270 269 269 269 268 268 268 268 269 271 272 273 274 275 277 279
224 227 229 231 233 234 236 236 238 240 243 247 252 254 258 262 264 265 267 268 268 269 269 269 269 269 270 270 270 270 269 269 269 269 270 270 271 272 273 274 275 277 279 280
222 225 226 227 227 227 229 231 235 239 242 245 248 252 254 259 262 264 267 269 270 271 271 270 269 269 269 269 269 269 269 269 270 270 271 272 272 273 274 275 276 278 279 281
222 225 227 229 231 232 232 234 235 238 240 243 247 251 254 258 261 263 266 268 271 272 272 271 270 269 269 269 269 269 270 270 271 271 271 272 273 274 275 277 279 280 281 282
220 223 225 227 230 234 234 235 236 239 242 244 246 249 252 258 262 263 265 267 270 271 271 271 270 270 269 269 269 270 271 271 272 273 273 274 275 275 277 278 279 281 282 284
219 221 223 225 226 231 235 233 234 237 239 242 244 246 250 254 258 262 265 267 269 270 271 270 269 269 268 269 270 271 272 273 274 275 276 276 277 278 279 280 281 282 284 286
219 221 222 224 225 228 232 233 235 237 239 242 244 245 247 251 256 259 263 266 268 269 269 269 268 268 269 270 271 272 273 274 276 278 278 278 279 279 280 281 282 284 285 287
218 220 222 224 225 229 231 233 236 238 239 241 243 244 247 250 254 257 261 265 266 267 267 267 268 268 269 271 273 274 275 276 278 279 280 280 281 281 281 283 284 285 286 288
218 219 221 224 227 230 230 231 234 238 239 240 242 243 246 249 253 256 260 262 263 264 265 267 268 269 270 272 274 276 276 277 278 280 281 282 282 283 284 285 286 286 288 289
219 219 220 223 227 230 230 232 234 238 239 239 242 244 246 249 253 256 257 258 260 261 264 267 268 270 271 273 275 276 277 279 279 280 281 282 283 285 286 286 287 288 289 290
218 219 220 222 226 229 230 232 233 237 239 240 242 244 247 249 251 252 254 256 258 260 263 266 269 271 272 274 275 277 278 280 280 281 282 284 285 286 286 287 288 289 290 291
217 220 222 223 226 228 231 233 234 237 239 241 242 242 244 246 248 250 252 255 258 260 262 265 269 271 273 274 276 278 280 281 282 283 284 285 285 286 287 288 289 290 291 292
217 220 225 227 228 230 232 233 233 235 238 239 239 240 242 244 247 250 252 255 257 260 263 266 270 272 274 275 277 279 281 283 283 284 285 285 286 287 288 289 290 291 292 293
216 218 221 224 226 229 231 232 233 234 236 237 239 240 243 245 248 251 253 255 258 260 264 267 271 274 276 277 278 281 282 284 285 286 286 287 288 288 289 290 291 292 293 295
212 215 219 223 225 227 228 229 230 233 235 236 237 239 243 246 249 252 254 257 259 262 266 269 272 275 277 278 280 282 284 285 286 287 288 288 289 290 290 291 293 294 295 297
210 213 216 220 222 224 224 225 228 232 234 236 238 240 244 247 250 253 255 259 261 264 267 270 273 275 277 279 281 283 285 286 287 288 289 290 291 292 293 294 295 296 297 298
Height
5711 5716 5723 5731 5736 5741 5744 5746 5750 5754 5755 5758 5763 5767 5772 5774 5777 5781 5784 5786 5788 5790 5792 5793 5794 5796 5797 5797 5797 5799 5799 5798 5798 5798 5798 5797 5796 5796 5795 5794 5793 5791 5790 5788
5700 5707 5718 5722 5725 5729 5733 5737 5741 5745 5747 5749 5753 5758 5762 5766 5768 5772 5775 5777 5779 5781 5783 5784 5786 5787 5788 5789 5789 5790 5790 5790 5790 5790 5789 5789 5788 5788 5787 5786 5784 5783 5782 5780
5691 5704 5709 5711 5715 5720 5724 5729 5734 5737 5738 5740 5743 5748 5754 5757 5759 5762 5765 5768 5770 5772 5773 5775 5777 5778 5780 5780 5780 5780 5781 5781 5781 5781 5780 5780 5779 5779 5778 5777 5776 5775 5773 5772
5681 5691 5696 5700 5705 5711 5716 5722 5725 5727 5729 5732 5735 5737 5745 5748 5751 5753 5756 5758 5760 5762 5764 5766 5768 5769 5770 5771 5771 5771 5771 5772 5772 5772 5771 5771 5771 5770 5769 5768 5767 5766 5765 5764
5672 5681 5686 5691 5699 5704 5709 5713 5715 5718 5720 5723 5727 5727 5735 5739 5742 5745 5747 5749 5751 5753 5755 5757 5758 5759 5760 5761 5761 5762 5762 5762 5762 5762 5762 5762 5761 5761 5760 5759 5758 5757 5756 5755
5663 5671 5676 5683 5690 5695 5699 5703 5706 5708 5710 5714 5721 5720 5724 5731 5734 5736 5738 5739 5741 5743 5745 5747 5748 5749 5750 5751 5751 5752 5752 5752 5753 5753 5752 5752 5752 5751 5751 5750 5749 5748 5747 5746
5652 5659 5666 5673 5679 5684 5689 5694 5698 5699 5701 5706 5713 5711 5716 5722 5725 5727 5729 5730 5732 5733 5735 5737 5738 5739 5740 5741 5742 5742 5742 5743 5743 5743 5743 5742 5742 5742 5742 5741 5740 5739 5739 5737
5642 5649 5657 5664 5670 5676 5681 5686 5691 5694 5696 5699 5701 5703 5711 5714 5716 5718 5720 5721 5723 5724 5726 5727 5728 5729 5731 5731 5732 5732 5732 5733 5733 5733 5733 5733 5733 5733 5733 5732 5731 5731 5730 5729
5634 5643 5651 5656 5663 5668 5672 5676 5683 5686 5688 5690 5691 5696 5703 5705 5708 5710 5712 5713 5714 5715 5717 5718 5719 5720 5721 5722 5722 5723 5723 5723 5724 5724 5723 5724 5724 5724 5723 5723 5722 5722 5721 5719
5626 5633 5640 5646 5651 5656 5663 5669 5673 5675 5678 5680 5685 5689 5694 5697 5700 5702 5703 5705 5706 5707 5708 5709 5710 5711 5712 5712 5713 5713 5714 5714 5714 5714 5714 5715 5715 5714 5714 5714 5713 5713 5712 5710
5617 5622 5628 5633 5639 5649 5654 5659 5662 5667 5670 5674 5678 5685 5687 5689 5692 5694 5696 5697 5698 5699 5700 5701 5702 5703 5703 5704 5704 5705 5705 5705 5706 5706 5706 5706 5706 5706 5705 5705 5704 5704 5703 5701
5607 5612 5617 5624 5633 5640 5645 5650 5654 5659 5663 5667 5671 5678 5679 5681 5684 5686 5688 5689 5690 5691 5692 5693 5694 5695 5695 5695 5696 5696 5697 5697 5697 5697 5697 5697 5697 5697 5697 5696 5695 5695 5694 5692
5597 5601 5607 5613 5621 5627 5632 5639 5644 5650 5655 5657 5662 5670 5673 5675 5677 5679 5680 5681 5682 5684 5685 5686 5686 5687 5687 5687 5688 5688 5688 5689 5689 5689 5689 5689 5689 5689 5688 5687 5687 5686 5684 5683
5586 5591 5598 5606 5613 5621 5626 5631 5636 5641 5644 5649 5655 5662 5665 5666 5669 5671 5673 5674 5675 5676 5677 5678 5679 5679 5679 5680 5680 5680 5680 5681 5681 5681 5681 5681 5680 5680 5679 5678 5678 5676 5675 5674
5575 5582 5590 5598 5605 5610 5616 5622 5628 5632 5637 5643 5649 5653 5658 5660 5661 5663 5665 5666 5668 5669 5670 5671 5671 5671 5672 5672 5672 5672 5673 5673 5673 5673 5673 5672 5672 5671 5670 5670 5669 5667 5666 5664
5566 5574 5581 5588 5595 5600 5604 5611 5618 5624 5630 5635 5640 5645 5651 5652 5653 5655 5657 5659 5661 5662 5662 5663 5663 5664 5664 5664 5665 5665 5665 5665 5665 5664 5664 5664 5663 5662 5662 5661 5659 5658 5656 5654
5558 5566 5573 5580 5587 5590 5594 5603 5610 5617 5622 5628 5632 5640 5642 5644 5646 5648 5650 5651 5653 5654 5655 5656 5656 5656 5657 5657 5657 5657 5657 5657 5657 5656 5656 5655 5655 5654 5653 5651 5650 5648 5646 5644
5550 5557 5564 5571 5577 5579 5592 5599 5603 5609 5615 5620 5625 5630 5633 5636 5638 5640 5642 5644 5646 5647 5647 5648 5648 5649 5649 5649 5649 5649 5649 5649 5649 5648 5648 5647 5646 5645 5643 5642 5640 5638 5636 5634
5542 5550 5556 5562 5566 5573 5583 5590 5596 5601 5607 5613 5617 5621 5625 5628 5630 5633 5635 5636 5638 5639 5640 5640 5641 5641 5642 5642 5641 5641 5641 5641 5640 5640 5639 5638 5637 5636 5634 5632 5630 5628 5626 5623
5533 5541 5548 5554 5559 5566 5579 5585 5589 5594 5598 5606 5609 5613 5617 5619 5622 5627 5627 5628 5630 5631 5632 5633 5633 5634 5634 5634 5634 5633 5633 5633 5632 5632 5631 5629 5628 5626 5624 5622 5620 5618 5615 5612
5524 5531 5538 5546 5552 5561 5571 5577 5581 5587 5595 5598 5601 5605 5608 5611 5615 5618 5619 5621 5622 5623 5625 5625 5626 5626 5626 5626 5626 5625 5625 5625 5624 5623 5621 5620 5619 5617 5615 5612 5610 5607 5605 5601
5516 5524 5532 5538 5546 5558 5565 5570 5576 5582 5586 5590 5593 5596 5600 5603 5606 5609 5611 5613 5615 5616 5617 5618 5618 5618 5618 5618 5618 5617 5617 5616 5615 5614 5612 5611 5609 5607 5604 5602 5599 5597 5594 5590
5508 5519 5527 5535 5546 5554 5558 5564 5569 5573 5577 5581 5585 5589 5592 5596 5598 5601 5603 5605 5607 5608 5609 5610 5610 5610 5610 5610 5610 5609 5608 5607 5606 5604 5603 5601 5599 5596 5594 5592 5589 5586 5582 5578
5502 5511 5519 5527 5537 5545 5551 5556 5561 5565 5570 5574 5578 5582 5585 5588 5591 5594 5596 5598 5599 5600 5601 5602 5602 5602 5602 5602 5601 5600 5599 5598 5596 5595 5593 5591 5589 5586 5584 5581 5577 5574 5570 5566
5494 5502 5510 5520 5530 5536 5543 5549 5554 5558 5562 5566 5571 5574 5578 5581 5583 5586 5588 5590 5591 5592 5593 5593 5594 5594 5593 5593 5592 5591 5590 5588 5587 5585 5583 5581 5578 5576 5573 5570 5566 5562 5558 5553
5487 5496 5505 5515 5523 5529 5537 5542 5546 5550 5555 5559 5563 5567 5570 5573 5576 5578 5580 5582 5583 5584 5585 5585 5585 5585 5585 5584 5583 5582 5580 5579 5577 5575 5573 5570 5568 5565 5562 5559 5555 5550 5546 5541